User: anonymous   Login
Location: Lawrence Hall of Science
(37.8785°N, 122.2415°W)
Time: 22:34:52
(UTC-07:00)
Language:

Cosmos 1461 - Orbit

View from above orbital plane
View from above orbital plane
View from above satellite
View from above satellite

Ground track
Ground track

The orbit data is extracted from the following two-line orbital elements,

1 14064U 83044A   17233.13365868 +.00000512 +00000-0 +59059-4 0  9990
2 14064 065.0008 083.8798 0097957 009.3013 350.9886 14.93704410733052
Epoch (UTC): 21 August 2017 03:12:28
Eccentricity: 0.0097957
inclination: 65.0008°
perigee height: 518 km
apogee height: 654 km
right ascension of ascending node: 83.8798°
argument of perigee: 9.3013°
revolutions per day: 14.93704410
mean anomaly at epoch: 350.9886°
orbit number at epoch: 73305

The dashed part of the orbit path shows where the satellite is in the earth's shadow,  

DLR